Location: Cedar Springs
(43.2230°N, 85.5510°W)
Time: 13:30:29
(UTC-05:00)

Cosmos 2278 Rocket - Visible Passes

Search period start: 30 January 2015 00:00
Search period end: 09 February 2015 00:00
Orbit: 840 x 847 km, 71.0° (Epoch: 28 January)

Date Brightness Start Highest point End Pass type
(mag) Time Alt. Az. Time Alt. Az. Time Alt. Az.
03 Feb 4.5 20:40:04 10° N 20:40:35 12° N 20:40:35 12° N visible
04 Feb 4.3 20:25:38 10° N 20:26:42 14° N 20:26:42 14° N visible
05 Feb 4.1 20:11:11 10° N 20:12:52 16° NNE 20:12:52 16° NNE visible
05 Feb 4.9 21:54:20 10° NNW 21:54:44 12° NNW 21:54:44 12° NNW visible
06 Feb 3.9 19:56:45 10° N 19:59:05 17° NNE 19:59:05 17° NNE visible
06 Feb 4.6 21:39:51 10° NNW 21:40:57 16° NNW 21:40:57 16° NNW visible
07 Feb 3.8 19:42:20 10° N 19:45:22 18° NE 19:45:22 18° NE visible
07 Feb 4.2 21:25:21 10° NNW 21:27:15 22° NNW 21:27:15 22° NNW visible
08 Feb 3.7 19:27:54 10° N 19:31:39 18° NE 19:31:44 18° NE visible
08 Feb 3.7 21:10:52 10° NNW 21:13:36 30° NNW 21:13:36 30° NNW visible
